Location: Bednik
(45.3500°N, 16.3833°E)
Time: 17:46:49
(UTC+00:00)

Cosmos 2360 Rocket - Pass Details

Date: 08 August 2020
Orbit: 834 x 845 km, 71.0° (Epoch: 25 September)

Event Time Altitude Azimuth Distance (km) Brightness Sun altitude
Rises 20:29:00 0° 341° (NNW) 3,415 6.6 -19.9°
Reaches altitude 10° 20:32:05 10° 357° (N) 2,476 5.4 -20.3°
Maximum altitude 20:36:21 21° 46° (NE) 1,807 4.0 -20.7°
Enters shadow 20:39:01 16° 81° (E) 2,094 4.0 -21.0°
